Home > Weather > Ilioupoli > Past weeks

Flag for Greece Past Weather in Ilioupoli, Greece — Yesterday and Last 2 Weeks

Now
77 °F

Clear.


Feels Like: 79 °F
Forecast: 73 / 92 °F
Wind: 1 mph from North

Location: Eleftherios Venizelos International Airport

Current Time: Jun 28, 2016 at 1:23:59 AM

Latest Report: Jun 28, 2016 at 12:50 AM


Visibility: 10 mi

Pressure: 29.80 "Hg

Humidity: 57%

Dew Point: 61 °F

Location of IlioupoliLocation

Past Weather in Ilioupoli — Graph

°F

Ilioupoli Temperature Yesterday

Maximum temperature yesterday: 91 °F (at 12:50 PM)
Minimum temperature yesterday: 72 °F (at 6:20 AM)
Average temperature yesterday: 82 °F

High & Low Weather Summary for the Past Weeks

 TemperatureHumidityPressure
High100 °F (Jun 18, 2:50 PM)94% (Jun 14, 6:50 AM)30.07 "Hg (Jun 14, 6:50 AM)
Low63 °F (Jun 13, 5:50 AM)17% (Jun 17, 3:20 PM)29.56 "Hg (Jun 14, 1:50 PM)
Average82 °F48%29.86 "Hg
* Reported Jun 12 11:20 PM — Jun 27 11:50 PM, Ilioupoli, Weather by CustomWeather, © 2016

Note: Actual official high and low records may vary slightly from our data, if they occured in-between our weather recording intervals... More about our weather records

Advertising

Ilioupoli Weather History for the Previous 24 Hours

Scroll right to see more
 ConditionsComfort  
Time TempWeatherWind HumidityBarometerVisibility
11:50 PM
Mon, Jun 27
81 °FClear.3 mph51%29.83 "Hg10 mi
11:20 PM81 °FPassing clouds.1 mph48%29.83 "HgN/A
10:50 PM81 °FPassing clouds.5 mph54%29.83 "HgN/A
10:20 PM81 °FPassing clouds.8 mph54%29.83 "HgN/A
9:50 PM81 °FPassing clouds.8 mph51%29.83 "HgN/A
9:20 PM82 °FPassing clouds.8 mph48%29.83 "HgN/A
8:50 PM82 °FPassing clouds.9 mph48%29.83 "HgN/A
8:20 PM84 °FPassing clouds.8 mph48%29.83 "HgN/A
7:50 PM84 °FPassing clouds.8 mph48%29.83 "HgN/A
7:20 PM84 °FPassing clouds.10 mph51%29.83 "HgN/A
6:50 PM84 °FPassing clouds.10 mph51%29.83 "HgN/A
6:20 PM88 °FPassing clouds.12 mph46%29.80 "HgN/A
5:50 PM90 °FPassing clouds.9 mph38%29.83 "HgN/A
5:20 PM91 °FPassing clouds.7 mph34%29.83 "HgN/A
4:50 PM91 °FPassing clouds.9 mph36%29.83 "HgN/A
4:20 PM91 °FPassing clouds.8 mph36%29.83 "HgN/A
3:50 PM91 °FPassing clouds.8 mph36%29.83 "HgN/A
3:20 PM91 °FPassing clouds.10 mph36%29.83 "HgN/A
2:50 PM91 °FPassing clouds.7 mph34%29.83 "HgN/A
2:20 PM90 °FPassing clouds.9 mph36%29.86 "HgN/A
1:50 PM90 °FPassing clouds.9 mph36%29.86 "HgN/A
1:20 PM90 °FScattered clouds.10 mph36%29.86 "HgN/A
12:50 PM91 °FScattered clouds.10 mph34%29.86 "HgN/A
12:20 PM90 °FPassing clouds.9 mph36%29.86 "HgN/A
11:50 AM90 °FPassing clouds.7 mph36%29.86 "HgN/A
11:20 AM88 °FPassing clouds.6 mph43%29.86 "HgN/A
10:50 AM88 °FPassing clouds.8 mph43%29.86 "HgN/A
10:20 AM86 °FPassing clouds.7 mph46%29.89 "HgN/A
9:50 AM84 °FPassing clouds.5 mph45%29.86 "HgN/A
9:20 AM84 °FPassing clouds.5 mph45%29.89 "HgN/A
8:50 AM82 °FSunny.2 mph55%29.89 "Hg10 mi
8:20 AM81 °FSunny.2 mph58%29.89 "Hg10 mi
7:50 AM77 °FSunny.2 mph69%29.89 "Hg10 mi
7:20 AM75 °FSunny.1 mph74%29.89 "Hg10 mi
6:50 AM73 °FPassing clouds.2 mph78%29.89 "HgN/A
6:20 AM72 °FPassing clouds.2 mph78%29.86 "HgN/A
5:50 AM73 °FPassing clouds.1 mph74%29.86 "HgN/A
5:20 AM73 °FPassing clouds.3 mph78%29.86 "HgN/A
4:50 AM73 °FPassing clouds.1 mph78%29.89 "HgN/A
4:20 AM73 °FPassing clouds.1 mph78%29.89 "HgN/A
3:50 AM75 °FPassing clouds.2 mph74%29.86 "HgN/A
3:20 AM75 °FPassing clouds.3 mph69%29.86 "HgN/A
2:50 AM75 °FPassing clouds.1 mph69%29.86 "HgN/A
2:20 AM77 °FPassing clouds.5 mph61%29.86 "HgN/A
1:50 AM77 °FPassing clouds.3 mph61%29.89 "HgN/A
1:20 AM75 °FPassing clouds.2 mph65%29.86 "HgN/A
Weather by CustomWeather, © 2016

See weather overviewHow to use our weather pages